Location: Cedar Brake
(32.2526°N, 97.8459°W)
Time: 16:51:08
(UTC+00:00)

Cosmos 1842 Rocket - Pass Details

Date: 22 April 2026
Orbit: 599 x 625 km, 82.5° (Epoch: 9 May)

Event Time Altitude Azimuth Distance (km) Brightness Sun altitude
Exits shadow 10:14:11 44° 284° (WNW) 830 3.8 -20.4°
Drops below altitude 10° 10:18:11 10° 352° (N) 1,946 6.4 -19.6°
Sets 10:20:29 0° 359° (N) 2,854 7.4 -19.2°
